Time[GMT],significant_wave_height[m](0m),dominant_wave_period[s](0m)
2014-10-25 22:00,,
2014-10-26 05:00, 0.67,8.0
2014-10-26 11:00, 0.57,2.9
2014-10-26 14:00,,
2014-10-26 15:00, 0.64,3.6
2014-10-26 16:00, 0.61,3.6
2014-10-26 17:00, 0.70,3.6
2014-10-26 18:00, 0.82,3.6
2014-10-26 20:00, 0.76,3.2
2014-10-26 21:00, 0.57,3.2
2014-10-26 22:00, 0.73,3.2
2014-10-26 23:00, 0.68,3.2
2014-10-27 00:00,,
2014-10-27 01:00, 0.71,3.2
2014-10-27 02:00, 0.59,2.9
2014-10-27 03:00, 0.59,3.2
2014-10-27 04:00, 0.60,3.2
2014-10-27 06:00, 0.60,3.2
2014-10-27 08:00, 0.63,3.6
2014-10-27 09:00, 0.61,2.9
2014-10-27 10:00,,
2014-10-27 11:00, 0.61,2.9
2014-10-27 12:00,,
2014-10-27 13:00, 0.55,2.7
2014-10-27 15:00, 0.73,2.9
2014-10-27 17:00, 0.74,3.2
2014-10-27 18:00, 0.73,3.6
2014-10-27 20:00,,
2014-10-27 22:00, 0.60,2.9
2014-10-27 23:00, 0.44,2.7
2014-10-28 00:00, 0.33,3.6
2014-10-28 01:00, 0.26,2.0
2014-10-28 02:00, 0.25,3.2
2014-10-28 04:00,,
2014-10-28 06:00,,
2014-10-28 07:00, 0.29,3.6
2014-10-28 10:00, 0.24,3.6
2014-10-28 12:00,,
2014-10-28 13:00, 0.25,8.0
2014-10-28 14:00, 0.29,2.0
2014-10-28 16:00, 0.44,2.7
2014-10-28 17:00,,
2014-10-28 18:00, 0.57,3.6
2014-10-28 19:00, 0.61,3.2
2014-10-29 03:00, 0.54,4.6
2014-10-29 04:00, 0.47,4.0
2014-10-29 06:00,,
2014-10-29 07:00, 0.56,4.6
2014-10-29 08:00, 0.51,4.6
2014-10-29 09:00, 0.45,4.6
2014-10-29 10:00, 0.40,5.3
2014-10-29 11:00,,
2014-10-29 12:00, 0.40,4.6
2014-10-29 14:00, 0.51,4.0
2014-10-29 15:00, 0.59,4.0
2014-10-29 16:00, 0.55,3.6
2014-10-29 19:00,,
2014-10-29 21:00,,
2014-10-29 22:00,,
2014-10-30 00:00,,
2014-10-30 05:00, 0.52,2.5
2014-10-30 06:00,,
2014-10-30 08:00, 0.42,2.9
2014-10-30 10:00,,
2014-10-30 11:00, 0.40,2.7
2014-10-30 13:00,,
2014-10-30 16:00,,
2014-10-30 18:00, 0.34,8.0
2014-10-30 20:00, 0.28,6.4
2014-10-31 01:00,,
2014-10-31 02:00, 0.32,6.4
2014-10-31 05:00,,
2014-10-31 06:00, 0.67,3.6
2014-10-31 07:00, 0.71,4.0
2014-10-31 08:00,,
2014-10-31 09:00,,
2014-10-31 10:00,,
2014-10-31 11:00, 1.01,4.6
2014-10-31 13:00, 0.89,4.6
2014-10-31 15:00, 0.78,4.6
2014-10-31 17:00,,
2014-10-31 19:00,,
2014-10-31 20:00,,
2014-10-31 21:00, 0.72,4.6
2014-10-31 23:00,,
2014-11-01 00:00, 0.93,4.6
2014-11-01 01:00, 1.01,4.6
2014-11-01 03:00, 1.28,4.6
2014-11-01 04:00, 1.33,4.6
2014-11-01 05:00, 1.38,4.6
2014-11-01 07:00, 1.42,5.3
2014-11-01 09:00,,
2014-11-01 10:00,,
2014-11-01 12:00, 1.87,6.4
2014-11-01 13:00,,
2014-11-01 15:00,,
2014-11-01 16:00,,
2014-11-01 17:00,,
2014-11-01 19:00,,
2014-11-01 20:00,,
2014-11-01 22:00, 4.03,10.7
2014-11-01 23:00,,
2014-11-02 00:00, 4.72,10.7
2014-11-02 03:00,,
2014-11-02 05:00,,
2014-11-02 06:00, 5.09,10.7
2014-11-02 07:00,,
2014-11-02 08:00, 4.71,10.7
2014-11-02 09:00,,
2014-11-02 10:00, 4.42,10.7
2014-11-02 12:00, 5.64,10.7
2014-11-02 13:00, 5.66,10.7
2014-11-02 15:00, 4.75,10.7
2014-11-02 16:00, 5.02,10.7
2014-11-02 18:00,,
2014-11-02 20:00,,
2014-11-02 21:00,,
2014-11-03 00:00,,
2014-11-03 04:00,,
2014-11-03 05:00, 3.18,10.7
2014-11-03 07:00,,
2014-11-03 09:00, 1.66,10.7
2014-11-03 10:00, 1.04,4.0
2014-11-03 11:00,,
2014-11-03 12:00, 1.11,4.6
2014-11-03 15:00,,
2014-11-03 20:00,,
2014-11-03 23:00, 0.58,3.2
2014-11-04 03:00, 0.48,2.9
2014-11-04 04:00, 0.47,2.9
2014-11-04 05:00, 0.34,2.5
2014-11-04 06:00, 0.41,3.2
2014-11-04 08:00, 0.31,2.7
2014-11-04 10:00, 0.27,2.7
2014-11-04 11:00, 0.24,2.0
2014-11-04 12:00, 0.19,2.3
2014-11-04 13:00, 0.17,1.9
2014-11-04 14:00, 0.17,1.8
2014-11-04 20:00, 0.29,2.1
2014-11-04 21:00, 0.39,2.7
2014-11-04 22:00, 0.40,2.7
2014-11-04 23:00, 0.38,2.5
2014-11-05 00:00, 0.42,2.7
2014-11-05 01:00, 0.47,2.9
2014-11-05 03:00,,
2014-11-05 04:00,,
2014-11-05 07:00, 0.64,4.0
2014-11-05 08:00, 0.58,4.0
2014-11-05 10:00, 0.64,4.0
2014-11-05 12:00, 0.69,4.0
2014-11-05 13:00,,
2014-11-05 14:00, 0.55,4.0
2014-11-05 17:00,,
2014-11-05 18:00, 0.49,2.9
2014-11-05 21:00, 0.40,3.6
2014-11-05 22:00, 0.46,2.9
2014-11-05 23:00, 0.34,2.9
2014-11-06 00:00, 0.39,6.4
2014-11-06 01:00, 0.33,6.4
2014-11-06 02:00, 0.31,4.6
2014-11-06 03:00, 0.27,5.3
2014-11-06 04:00,,
2014-11-06 05:00,,
2014-11-06 08:00, 0.29,16.0
2014-11-06 10:00,,
2014-11-06 12:00, 0.37,16.0
2014-11-06 13:00, 0.28,5.3
2014-11-06 14:00, 0.31,6.4
2014-11-06 16:00, 0.37,5.3
2014-11-06 18:00,,
2014-11-06 20:00, 0.46,2.9
2014-11-06 22:00, 0.53,3.2
2014-11-07 00:00, 0.69,3.6
2014-11-07 02:00,,
2014-11-07 03:00,,
2014-11-07 06:00,,
2014-11-07 11:00,,
2014-11-07 13:00, 0.85,5.3
2014-11-07 15:00,,
2014-11-07 16:00,,
2014-11-07 17:00,,
2014-11-07 20:00,,
2014-11-07 21:00, 1.14,3.2
2014-11-08 01:00, 1.14,4.0
2014-11-08 02:00, 1.25,3.6
2014-11-08 03:00,,
2014-11-08 05:00, 1.00,4.6
2014-11-08 08:00, 0.94,2.9
2014-11-08 12:00,,
2014-11-08 13:00,,
2014-11-08 14:00, 0.65,4.0
2014-11-08 17:00,,
2014-11-08 19:00, 0.41,2.7
2014-11-08 21:00,,
2014-11-08 22:00,,
2014-11-08 23:00,,
2014-11-09 00:00,,
2014-11-09 01:00, 0.79,3.6
2014-11-09 02:00,,
2014-11-09 04:00,,
2014-11-09 05:00, 0.84,4.0
2014-11-09 08:00,,
2014-11-09 09:00, 0.87,3.6
2014-11-09 10:00, 0.86,3.6
2014-11-09 11:00, 0.90,4.0
2014-11-09 13:00, 1.00,4.0
2014-11-09 14:00, 0.97,4.0
2014-11-09 15:00, 0.93,4.0
2014-11-09 16:00, 0.79,4.0
2014-11-09 17:00, 0.53,3.6
2014-11-09 18:00,,
2014-11-09 19:00, 0.32,2.9
2014-11-09 20:00, 0.47,10.7
2014-11-09 22:00, 0.42,10.7
2014-11-09 23:00, 0.46,8.0
2014-11-10 00:00, 0.40,8.0
2014-11-10 01:00, 0.43,10.7
2014-11-10 02:00, 0.41,8.0
2014-11-10 03:00, 0.27,2.1
2014-11-10 04:00, 0.60,10.7
2014-11-10 05:00, 0.42,5.3
2014-11-10 06:00, 0.36,6.4
2014-11-10 07:00, 0.48,10.7
2014-11-10 08:00,,
2014-11-10 09:00, 0.41,10.7
2014-11-10 10:00, 0.47,10.7
2014-11-10 13:00, 0.46,8.0
2014-11-10 15:00, 0.23,2.3
2014-11-10 16:00, 0.46,8.0
2014-11-10 17:00, 0.57,10.7
2014-11-10 18:00, 0.44,8.0
2014-11-10 19:00,,
2014-11-10 20:00,,
2014-11-10 21:00, 0.42,8.0
2014-11-11 00:00, 0.44,8.0
2014-11-11 01:00, 0.43,8.0
2014-11-11 02:00, 0.55,8.0
2014-11-11 03:00, 0.51,8.0
2014-11-11 04:00, 0.49,6.4
2014-11-11 05:00, 0.46,6.4
2014-11-11 07:00, 0.36,2.7
2014-11-11 08:00, 0.51,8.0
2014-11-11 09:00, 0.56,8.0
2014-11-11 10:00,,
2014-11-11 11:00, 0.45,2.9
2014-11-11 12:00,,
2014-11-11 13:00, 0.38,3.2
2014-11-11 15:00,,
2014-11-11 16:00, 0.59,8.0
2014-11-11 17:00, 0.44,3.2
2014-11-11 18:00, 0.53,2.9
2014-11-11 20:00, 0.57,3.6
2014-11-11 21:00, 0.53,4.6
2014-11-11 23:00,,
2014-11-12 00:00, 0.76,8.0
2014-11-12 01:00,,
2014-11-12 02:00, 0.85,8.0
2014-11-12 03:00, 0.99,10.7
2014-11-12 04:00, 0.82,8.0
2014-11-12 05:00, 0.82,8.0
2014-11-12 06:00, 0.79,8.0
2014-11-12 07:00, 0.64,8.0
2014-11-12 10:00, 0.52,8.0
2014-11-12 11:00, 0.60,8.0
2014-11-12 12:00, 0.54,8.0
2014-11-12 13:00, 0.54,8.0
2014-11-12 14:00, 0.68,8.0
2014-11-12 15:00, 0.59,8.0
2014-11-12 16:00, 0.57,8.0
2014-11-12 17:00, 0.62,8.0
2014-11-12 18:00, 0.57,8.0
2014-11-12 19:00, 0.53,8.0
2014-11-12 20:00, 0.58,8.0
2014-11-12 21:00,,
2014-11-13 00:00,,
2014-11-13 01:00,,
2014-11-13 04:00,,
2014-11-13 05:00,,
2014-11-13 06:00,,
2014-11-13 07:00, 0.65,2.7
2014-11-13 08:00,,
2014-11-13 10:00,,
2014-11-13 12:00, 0.58,2.7
2014-11-13 13:00,,
2014-11-13 14:00, 0.76,8.0
2014-11-13 16:00, 0.73,8.0
2014-11-13 17:00, 0.68,8.0
2014-11-13 18:00, 0.70,8.0
2014-11-13 19:00, 0.70,8.0
2014-11-13 20:00, 0.68,8.0
2014-11-13 21:00, 0.68,8.0
2014-11-14 01:00, 0.96,8.0
2014-11-14 07:00,,
2014-11-14 11:00,,
2014-11-14 12:00,,
2014-11-14 14:00, 1.64,10.7
2014-11-14 15:00, 1.62,10.7
2014-11-14 16:00, 1.94,10.7
2014-11-14 17:00,,
2014-11-14 20:00, 1.54,10.7
2014-11-14 21:00, 0.91,5.3
2014-11-15 00:00, 1.64,10.7
2014-11-15 06:00,,
2014-11-15 08:00,,
2014-11-15 09:00,,
2014-11-15 10:00,,
2014-11-15 12:00,,
2014-11-15 14:00,,
2014-11-15 15:00,,
2014-11-15 18:00,,
2014-11-15 19:00,,
2014-11-16 00:00, 0.43,2.7
2014-11-16 03:00, 0.50,2.7
2014-11-16 04:00, 0.55,2.9
2014-11-16 05:00,,
2014-11-16 07:00, 0.35,3.2
2014-11-16 08:00, 0.32,2.9
2014-11-16 09:00, 0.32,2.9
2014-11-16 11:00, 0.33,3.2
2014-11-16 12:00, 0.32,2.7
2014-11-16 13:00, 0.35,2.7
2014-11-16 14:00, 0.35,2.7
2014-11-16 15:00, 0.40,2.7
2014-11-16 16:00, 0.41,2.7
2014-11-16 19:00,,
2014-11-16 20:00,,
2014-11-16 21:00, 0.45,2.9
2014-11-16 22:00, 0.49,2.9
2014-11-16 23:00, 0.58,3.2
2014-11-17 02:00, 0.72,3.6
2014-11-17 05:00,,
2014-11-17 06:00, 0.74,3.6
2014-11-17 07:00, 0.64,3.6
2014-11-17 08:00, 0.58,2.9
2014-11-17 10:00, 0.35,2.9
2014-11-17 11:00,,
2014-11-17 12:00, 0.25,4.6
2014-11-17 14:00,,
2014-11-17 16:00,,
2014-11-17 17:00,,
2014-11-17 19:00, 1.26,4.6
2014-11-17 20:00,,
2014-11-17 21:00, 1.28,5.3
2014-11-18 02:00,,
2014-11-18 05:00,,
2014-11-18 07:00, 0.73,2.9
2014-11-18 09:00, 1.11,8.0
2014-11-18 10:00, 0.94,4.0
2014-11-18 11:00, 1.48,10.7
2014-11-18 12:00, 1.27,10.7
2014-11-18 13:00, 0.85,4.0
2014-11-18 15:00, 1.22,4.0
2014-11-18 18:00,,
2014-11-18 20:00,,
2014-11-18 22:00, 1.47,4.6
2014-11-18 23:00, 1.10,4.6
2014-11-19 02:00, 1.17,4.6
2014-11-19 08:00,,
2014-11-19 09:00, 1.42,5.3
2014-11-19 10:00,,
2014-11-19 12:00, 1.56,5.3
2014-11-19 13:00, 1.41,4.6
2014-11-19 14:00,,
2014-11-19 17:00,,
2014-11-19 18:00, 0.67,3.6
2014-11-19 21:00,,
2014-11-19 22:00, 0.54,2.9
2014-11-19 23:00, 0.69,3.6
2014-11-20 02:00,,
2014-11-20 03:00,,
2014-11-20 06:00,,
2014-11-20 10:00, 1.02,4.0
2014-11-20 11:00, 1.04,4.6
2014-11-20 12:00,,
2014-11-20 14:00, 1.12,4.0
2014-11-20 16:00, 1.04,4.0
2014-11-20 17:00, 0.99,4.0
2014-11-20 18:00, 1.12,4.0
2014-11-21 01:00, 0.71,2.7
2014-11-21 04:00, 0.65,2.9
2014-11-21 09:00, 1.06,3.6
2014-11-21 10:00,,
2014-11-21 11:00, 1.10,4.6
2014-11-21 17:00, 1.00,4.0
2014-11-21 20:00,,
2014-11-21 22:00,,
2014-11-22 01:00, 0.80,3.6
2014-11-22 02:00, 1.00,3.6
2014-11-22 03:00,,
2014-11-22 06:00, 0.68,3.2
2014-11-22 07:00, 0.66,3.2
2014-11-22 08:00, 0.68,3.6
2014-11-22 09:00, 0.79,3.6
2014-11-22 11:00, 0.70,3.6
2014-11-22 12:00, 0.77,3.2
2014-11-22 14:00,,
2014-11-22 15:00, 0.87,4.0
2014-11-22 17:00, 1.23,4.6
2014-11-22 19:00,,
2014-11-22 23:00, 1.51,4.6
2014-11-23 01:00,,
2014-11-23 04:00, 1.61,5.3
2014-11-23 06:00,,
2014-11-23 08:00, 1.29,4.6
2014-11-23 09:00, 1.02,4.0
2014-11-23 10:00, 1.09,4.0
2014-11-23 11:00, 1.01,4.6
2014-11-23 12:00,,
2014-11-23 14:00,,
2014-11-23 15:00, 0.87,3.6
2014-11-23 16:00,,
2014-11-23 17:00,,
2014-11-23 19:00, 0.55,4.0
2014-11-23 21:00, 0.39,3.2
2014-11-23 22:00, 0.42,8.0
2014-11-23 23:00, 0.39,6.4
2014-11-24 00:00, 0.45,8.0
2014-11-24 01:00, 0.39,6.4
2014-11-24 02:00,,
2014-11-24 03:00, 0.51,2.9
2014-11-24 04:00, 0.38,3.2
2014-11-24 05:00,,
2014-11-24 06:00, 0.39,3.2
2014-11-24 08:00,,
2014-11-24 10:00,,
2014-11-24 11:00,,
2014-11-24 12:00,,
2014-11-24 13:00,,
2014-11-24 14:00, 1.84,5.3
2014-11-24 15:00, 1.97,6.4
2014-11-24 16:00, 2.17,6.4
2014-11-24 17:00, 2.60,6.4
2014-11-24 18:00,,
2014-11-24 21:00, 1.58,6.4
2014-11-24 22:00,,
2014-11-25 00:00, 1.49,6.4
2014-11-25 01:00,,
2014-11-25 03:00, 1.25,5.3
2014-11-25 04:00, 1.21,5.3
2014-11-25 05:00, 0.92,5.3
2014-11-25 06:00, 0.92,6.4
2014-11-25 08:00, 1.01,10.7
2014-11-25 09:00, 1.25,10.7
2014-11-25 11:00, 1.18,8.0
2014-11-25 12:00,,
2014-11-25 13:00, 1.16,8.0
2014-11-25 14:00,,
2014-11-25 16:00, 1.03,10.7
2014-11-25 17:00, 0.63,5.3
2014-11-25 18:00, 0.54,4.6
2014-11-25 20:00, 1.05,10.7
2014-11-25 21:00, 1.16,10.7
2014-11-25 22:00,,
2014-11-25 23:00,,
2014-11-26 00:00, 0.91,8.0
2014-11-26 01:00, 0.94,10.7
2014-11-26 02:00, 0.97,10.7
2014-11-26 03:00, 0.89,8.0
2014-11-26 04:00, 0.88,8.0
2014-11-26 05:00, 0.81,10.7
2014-11-26 06:00,,
2014-11-26 10:00, 0.75,8.0
2014-11-26 11:00,,
2014-11-26 12:00,,
2014-11-26 13:00, 0.80,8.0
2014-11-26 14:00,,
2014-11-26 15:00, 0.71,2.7
2014-11-26 16:00, 0.77,8.0
2014-11-26 17:00, 0.54,3.2
2014-11-26 18:00,,
2014-11-26 19:00, 1.01,4.0
2014-11-26 20:00,,
2014-11-26 22:00,,
2014-11-26 23:00,,
2014-11-27 02:00,,
2014-11-27 03:00,,
2014-11-27 04:00, 4.17,8.0
2014-11-27 05:00,,
2014-11-27 06:00, 4.05,8.0
2014-11-27 12:00, 3.70,10.7
2014-11-27 13:00, 3.33,10.7
2014-11-27 14:00,,
2014-11-27 15:00, 3.35,10.7
2014-11-27 16:00, 3.33,10.7
2014-11-27 17:00, 2.93,10.7
2014-11-27 18:00, 2.33,10.7
2014-11-27 19:00,,
2014-11-27 21:00,,
2014-11-27 22:00,,
2014-11-27 23:00, 1.90,10.7
2014-11-28 02:00, 1.63,10.7
2014-11-28 03:00, 1.42,8.0
2014-11-28 04:00, 1.21,8.0
2014-11-28 05:00, 1.16,8.0
2014-11-28 06:00,,
2014-11-28 08:00,,
2014-11-28 09:00,,
2014-11-28 11:00, 1.69,10.7
2014-11-28 12:00,,
2014-11-28 13:00,,
2014-11-28 14:00,,
2014-11-28 15:00,,
2014-11-28 16:00,,
2014-11-28 17:00,,
2014-11-28 18:00, 1.15,6.4
2014-11-28 19:00,,
2014-11-28 20:00,,
2014-11-28 21:00,,
2014-11-28 22:00,,
2014-11-28 23:00,,
2014-11-29 00:00, 0.73,2.7
2014-11-29 02:00,,
2014-11-29 04:00,,
2014-11-29 05:00,,
2014-11-29 07:00,,
2014-11-29 10:00,,
2014-11-29 11:00,,
2014-11-29 12:00, 0.54,2.9
2014-11-29 13:00,,
2014-11-29 16:00, 0.35,4.6
2014-11-29 17:00, 0.38,5.3
2014-11-29 18:00, 0.42,8.0
2014-11-29 19:00, 0.39,8.0
2014-11-29 20:00, 0.28,5.3
2014-11-29 21:00, 0.28,6.4
2014-11-29 23:00, 0.27,5.3
2014-11-30 02:00, 0.69,3.2
2014-11-30 03:00, 0.76,3.6
2014-11-30 04:00, 0.67,3.6
2014-11-30 05:00, 0.74,3.2
2014-11-30 06:00, 0.84,4.0
2014-11-30 07:00, 0.97,4.0
2014-11-30 08:00, 1.14,4.6
2014-11-30 10:00, 1.12,4.6
2014-11-30 11:00, 1.21,5.3
2014-11-30 12:00, 1.63,5.3
2014-11-30 13:00, 1.48,5.3
2014-11-30 14:00,,
2014-11-30 15:00,,
2014-11-30 16:00, 1.36,5.3
2014-11-30 17:00, 1.07,5.3
2014-11-30 18:00, 1.04,5.3
2014-11-30 19:00,,
2014-11-30 20:00,,
2014-11-30 21:00,,
2014-11-30 22:00, 1.01,5.3
2014-11-30 23:00, 0.98,4.6
2014-12-01 00:00,,
2014-12-01 06:00,,
2014-12-01 07:00, 0.94,6.4
2014-12-01 08:00,,
2014-12-01 09:00, 0.93,6.4
2014-12-01 10:00,,
2014-12-01 13:00,,
2014-12-01 16:00, 0.84,8.0
2014-12-01 18:00, 0.80,8.0
2014-12-01 19:00, 0.78,6.4
2014-12-01 20:00, 0.74,8.0
2014-12-01 21:00, 0.73,6.4
2014-12-01 22:00,,
2014-12-01 23:00, 0.42,2.5
2014-12-02 00:00, 0.80,3.2
2014-12-02 01:00, 0.87,4.6
2014-12-02 02:00, 0.75,4.6
2014-12-02 05:00,,
2014-12-02 06:00,,
2014-12-02 07:00,,
2014-12-02 08:00, 1.04,4.6
2014-12-02 09:00, 1.08,5.3
2014-12-02 11:00, 1.05,5.3
2014-12-02 12:00,,
2014-12-02 14:00, 1.11,6.4
2014-12-02 15:00,,
2014-12-02 18:00, 1.19,5.3
2014-12-02 19:00,,
2014-12-02 20:00, 1.35,5.3
2014-12-02 21:00,,
2014-12-02 22:00,,
2014-12-02 23:00, 1.44,6.4
2014-12-03 00:00,,
2014-12-03 01:00, 1.47,5.3
2014-12-03 02:00, 1.85,5.3
2014-12-03 04:00, 1.75,6.4
2014-12-03 05:00, 2.00,6.4
2014-12-03 11:00, 2.75,8.0
2014-12-03 12:00,,
2014-12-03 14:00, 2.61,8.0
2014-12-03 15:00,,
2014-12-03 16:00, 2.30,8.0
2014-12-03 18:00,,
2014-12-03 20:00, 1.91,8.0
2014-12-03 21:00, 2.25,10.7
2014-12-04 02:00, 1.79,8.0
2014-12-04 05:00,,
2014-12-04 08:00,,
2014-12-04 09:00, 1.04,4.0
2014-12-04 10:00, 0.81,4.0
2014-12-04 11:00, 1.06,10.7
2014-12-04 13:00, 0.71,4.0
2014-12-04 14:00, 1.21,10.7
2014-12-04 15:00, 0.82,4.0
2014-12-04 17:00,,
2014-12-04 22:00, 0.71,2.7
2014-12-04 23:00,,
2014-12-05 00:00,,
2014-12-05 02:00,,
2014-12-05 03:00,,
2014-12-05 04:00,,
2014-12-05 07:00, 0.67,3.2
2014-12-05 09:00, 0.92,10.7
2014-12-05 10:00, 0.49,4.0
2014-12-05 11:00, 0.48,3.6
2014-12-05 12:00, 0.58,3.6
2014-12-05 13:00, 0.70,4.0
2014-12-05 14:00,,
2014-12-05 15:00,,
2014-12-05 16:00,,
2014-12-05 17:00,,
2014-12-05 18:00, 0.86,4.0
2014-12-05 19:00,,
2014-12-05 20:00, 0.76,4.6
2014-12-05 22:00, 0.81,3.6
2014-12-05 23:00,,
2014-12-06 00:00, 1.07,4.0
2014-12-06 01:00, 1.17,4.6
2014-12-06 02:00, 1.09,5.3
2014-12-06 04:00,,
2014-12-06 05:00,,
2014-12-06 07:00,,
2014-12-06 08:00,,
2014-12-06 09:00,,
2014-12-06 10:00, 2.16,6.4
2014-12-06 11:00, 1.95,6.4
2014-12-06 12:00,,
2014-12-06 13:00, 1.95,6.4
2014-12-06 15:00, 1.57,6.4
2014-12-06 20:00, 0.99,6.4
2014-12-06 21:00, 1.07,6.4
2014-12-06 22:00, 1.04,6.4
2014-12-06 23:00, 0.94,6.4
2014-12-07 00:00, 0.91,6.4
2014-12-07 01:00,,
2014-12-07 02:00, 0.83,6.4
2014-12-07 03:00,,
2014-12-07 05:00, 1.20,4.0
2014-12-07 07:00,,
2014-12-07 09:00,,
2014-12-07 12:00, 2.11,6.4
2014-12-07 13:00, 2.39,6.4
2014-12-07 14:00,,
2014-12-07 15:00, 2.27,6.4
2014-12-07 16:00, 2.25,8.0
2014-12-07 18:00,,
2014-12-07 19:00,,
2014-12-07 20:00,,
2014-12-07 22:00, 2.68,8.0
2014-12-08 01:00,,
2014-12-08 02:00,,
2014-12-08 03:00,,
2014-12-08 04:00,,
2014-12-08 05:00, 2.98,8.0
2014-12-08 06:00, 2.84,6.4
2014-12-08 07:00,,
2014-12-08 08:00, 2.70,8.0
2014-12-08 09:00, 2.89,8.0
2014-12-08 10:00, 2.43,8.0
2014-12-08 15:00, 2.64,8.0
2014-12-08 16:00, 2.39,8.0
2014-12-08 17:00, 2.46,8.0
2014-12-08 19:00, 2.38,8.0
2014-12-08 22:00, 2.21,10.7
2014-12-08 23:00, 2.21,8.0
2014-12-09 00:00, 2.17,8.0
2014-12-09 01:00,,
2014-12-09 02:00, 2.21,8.0
2014-12-09 03:00,,
2014-12-09 05:00,,
2014-12-09 06:00, 2.29,5.3
2014-12-09 07:00, 2.51,6.4
2014-12-09 08:00, 2.77,8.0
2014-12-09 09:00, 2.94,6.4
2014-12-09 10:00,,
2014-12-09 12:00,,
2014-12-09 13:00,,
2014-12-09 14:00, 3.59,8.0
2014-12-09 15:00,,
2014-12-09 16:00, 3.97,8.0
2014-12-09 17:00, 4.00,10.7
2014-12-09 22:00, 6.48,10.7
2014-12-10 01:00, 4.82,10.7
2014-12-10 02:00,,
2014-12-10 03:00, 5.42,10.7
2014-12-10 05:00,,
2014-12-10 06:00, 4.86,10.7
2014-12-10 09:00,,
2014-12-10 10:00,,
2014-12-10 11:00, 3.59,10.7
2014-12-10 12:00, 3.47,10.7
2014-12-10 13:00,,
2014-12-10 14:00, 3.35,10.7
2014-12-10 15:00, 3.45,10.7
2014-12-10 16:00,,
2014-12-10 17:00,,
2014-12-10 18:00,,
2014-12-10 19:00, 3.59,10.7
2014-12-10 20:00,,
2014-12-10 22:00, 2.70,8.0
2014-12-10 23:00, 2.90,10.7
2014-12-11 00:00, 2.99,10.7
2014-12-11 01:00,,
2014-12-11 02:00, 2.87,10.7
2014-12-11 03:00, 2.66,10.7
2014-12-11 04:00,,
2014-12-11 05:00, 2.45,10.7
2014-12-11 06:00, 2.23,10.7
2014-12-11 07:00, 2.32,10.7
2014-12-11 08:00, 2.14,10.7
2014-12-11 09:00, 2.29,10.7
2014-12-11 11:00,,
2014-12-11 12:00, 2.42,10.7
2014-12-11 13:00, 2.71,10.7
2014-12-11 14:00,,
2014-12-11 16:00,,
2014-12-11 17:00, 2.32,10.7
2014-12-11 19:00,,
2014-12-11 21:00,,
2014-12-11 22:00, 2.01,10.7
2014-12-12 04:00, 1.60,10.7
2014-12-12 05:00,,
2014-12-12 06:00, 1.54,10.7
2014-12-12 07:00, 1.23,10.7
2014-12-12 08:00, 1.34,10.7
2014-12-12 13:00, 1.72,10.7
2014-12-12 16:00, 1.34,10.7
2014-12-12 18:00,,
2014-12-12 19:00,,
2014-12-12 20:00,,
2014-12-12 21:00, 1.02,10.7
2014-12-12 22:00,,
2014-12-13 02:00, 1.41,10.7
2014-12-13 04:00,,
2014-12-13 05:00,,
2014-12-13 07:00, 1.43,10.7
2014-12-13 09:00,,
2014-12-13 10:00, 0.79,3.2
2014-12-13 11:00,,
2014-12-13 13:00, 0.67,2.7
2014-12-13 14:00,,
2014-12-13 16:00, 0.63,2.7
2014-12-13 17:00, 0.67,3.2
2014-12-13 18:00, 0.61,2.7
2014-12-13 19:00, 0.63,3.2
2014-12-13 20:00,,
2014-12-13 21:00, 0.44,2.5
2014-12-14 00:00, 0.59,2.7
2014-12-14 01:00,,
2014-12-14 03:00, 0.64,2.5
2014-12-14 05:00,,
2014-12-14 07:00,,
2014-12-14 12:00,,
2014-12-14 15:00, 0.68,4.6
2014-12-14 16:00, 0.61,4.6
2014-12-14 17:00, 0.75,8.0
2014-12-14 18:00,,
2014-12-14 19:00,,
2014-12-14 20:00, 1.02,10.7
2014-12-14 21:00,,
2014-12-14 22:00,,
2014-12-15 00:00,,
2014-12-15 01:00,,
2014-12-15 02:00, 0.67,2.7
2014-12-15 03:00, 0.71,2.5
2014-12-15 04:00, 0.71,2.7
2014-12-15 05:00, 0.67,2.7
2014-12-15 06:00, 0.70,2.9
2014-12-15 07:00, 0.72,2.7
2014-12-15 08:00, 0.58,2.5
2014-12-15 09:00,,
2014-12-15 10:00,,
2014-12-15 11:00,,
2014-12-15 13:00,,
2014-12-15 15:00, 0.57,2.7
2014-12-15 16:00, 0.47,4.6
2014-12-15 17:00, 0.48,4.6
2014-12-15 18:00, 0.52,10.7
2014-12-15 19:00, 0.53,10.7
2014-12-15 20:00, 0.57,10.7
2014-12-15 21:00, 0.53,10.7
2014-12-15 22:00, 0.56,10.7
2014-12-15 23:00, 0.56,10.7
2014-12-16 00:00, 0.58,10.7
2014-12-16 02:00, 0.64,10.7
2014-12-16 03:00, 0.67,10.7
2014-12-16 04:00, 0.65,10.7
2014-12-16 05:00, 0.65,10.7
2014-12-16 06:00, 0.61,10.7
2014-12-16 07:00, 0.66,10.7
2014-12-16 08:00, 0.61,10.7
2014-12-16 09:00,,8.0
2014-12-16 10:00, 0.68,10.7
2014-12-16 11:00,,
2014-12-16 12:00, 0.56,10.7
2014-12-16 13:00, 0.54,8.0
2014-12-16 14:00, 0.64,10.7
2014-12-16 15:00, 0.54,10.7
2014-12-16 16:00, 0.53,10.7
2014-12-16 17:00, 0.50,10.7
2014-12-16 18:00, 0.50,10.7
2014-12-16 19:00, 0.55,10.7
2014-12-16 20:00, 0.64,10.7
2014-12-16 21:00, 0.59,10.7
2014-12-16 22:00, 0.57,10.7
2014-12-16 23:00, 0.63,10.7
2014-12-17 00:00, 0.53,10.7
2014-12-17 01:00, 0.36,2.5
2014-12-17 02:00, 0.64,3.6
2014-12-17 03:00, 0.70,3.6
2014-12-17 04:00, 0.96,10.7
2014-12-17 05:00, 0.56,4.0
2014-12-17 06:00, 0.61,3.6
2014-12-17 07:00, 1.02,10.7
2014-12-17 08:00, 1.04,10.7
2014-12-17 10:00,,
2014-12-17 11:00,,
2014-12-17 12:00, 1.08,4.6
2014-12-17 15:00,,
2014-12-17 16:00, 0.93,5.3
2014-12-17 19:00, 0.78,5.3
2014-12-17 20:00,,
2014-12-17 21:00,,
2014-12-17 22:00, 1.09,10.7
2014-12-17 23:00, 1.14,6.4
2014-12-18 00:00, 1.14,8.0
2014-12-18 01:00, 1.26,8.0
2014-12-18 05:00,,
2014-12-18 06:00,,
2014-12-18 07:00,,
2014-12-18 11:00,,
2014-12-18 12:00,,
2014-12-18 13:00, 0.94,4.0
2014-12-18 14:00,,
2014-12-18 15:00, 0.93,4.6
2014-12-18 17:00,,
2014-12-18 18:00,,
2014-12-18 19:00,,
2014-12-18 20:00,,
2014-12-18 21:00, 1.03,10.7
2014-12-18 22:00,,
2014-12-19 00:00, 0.77,3.6
2014-12-19 01:00,,
2014-12-19 04:00,,
2014-12-19 05:00,,
2014-12-19 07:00,,
2014-12-19 08:00, 0.64,2.9
2014-12-19 10:00,,
2014-12-19 11:00, 0.62,2.9
2014-12-19 12:00,,
2014-12-19 14:00,,
2014-12-19 15:00,,
2014-12-19 16:00, 0.69,2.9
2014-12-19 17:00,,
2014-12-19 18:00, 0.40,2.5
2014-12-19 19:00, 0.34,2.1
2014-12-19 20:00, 0.32,2.5
2014-12-19 21:00, 0.32,2.3
2014-12-19 22:00, 0.59,3.2
2014-12-19 23:00, 0.59,3.2
2014-12-20 00:00, 0.69,3.6
2014-12-20 01:00, 0.66,2.5
2014-12-20 02:00, 0.60,2.9
2014-12-20 03:00,,
2014-12-20 08:00, 0.73,4.6
2014-12-20 09:00, 1.05,4.6
2014-12-20 10:00,,
2014-12-20 11:00, 1.10,5.3
2014-12-20 12:00, 0.99,5.3
2014-12-20 13:00, 1.04,5.3
2014-12-20 14:00,,
2014-12-20 15:00,,
2014-12-20 16:00,,
2014-12-20 17:00, 1.10,5.3
2014-12-20 20:00, 1.02,5.3
2014-12-20 21:00, 1.14,5.3
2014-12-20 22:00,,
2014-12-20 23:00, 1.41,5.3
2014-12-21 00:00,,
2014-12-21 02:00,,
2014-12-21 03:00, 1.28,5.3
2014-12-21 04:00, 1.12,5.3
2014-12-21 05:00,,
2014-12-21 06:00,,
2014-12-21 07:00,,
2014-12-21 08:00,,
2014-12-21 09:00,,
2014-12-21 10:00, 1.26,5.3
2014-12-21 11:00,,
2014-12-21 12:00, 1.27,5.3
2014-12-21 13:00, 1.38,5.3
2014-12-21 14:00,,
2014-12-21 15:00,,
2014-12-21 18:00, 1.06,5.3
2014-12-21 19:00, 0.90,6.4
2014-12-21 20:00,,
2014-12-21 22:00,,
2014-12-21 23:00,,
2014-12-22 00:00, 0.98,8.0
2014-12-22 01:00, 1.14,8.0
2014-12-22 02:00,,
2014-12-22 03:00, 1.16,8.0
2014-12-22 04:00, 0.95,8.0
2014-12-22 05:00, 1.01,6.4
2014-12-22 06:00, 0.85,6.4
2014-12-22 07:00, 0.96,8.0
2014-12-22 08:00,,
2014-12-22 09:00,,
2014-12-22 10:00, 0.95,6.4
2014-12-22 11:00, 0.94,6.4
2014-12-22 12:00,,
2014-12-22 13:00, 0.64,2.7
2014-12-22 14:00,,
2014-12-22 15:00, 1.03,6.4
2014-12-22 16:00, 0.96,8.0
2014-12-22 17:00, 0.97,8.0
2014-12-22 18:00,,
2014-12-22 19:00, 0.91,6.4
2014-12-22 20:00, 0.83,6.4
2014-12-22 21:00, 0.76,8.0
2014-12-22 22:00, 0.98,6.4
2014-12-22 23:00, 0.96,6.4
2014-12-23 00:00, 1.01,6.4
2014-12-23 01:00, 1.26,8.0
2014-12-23 02:00, 1.30,8.0
2014-12-23 03:00, 1.42,8.0
2014-12-23 04:00, 1.41,8.0
2014-12-23 05:00, 1.39,8.0
2014-12-23 06:00, 1.32,5.3
2014-12-23 07:00, 1.45,6.4
2014-12-23 08:00, 1.53,6.4
2014-12-23 09:00,,
2014-12-23 10:00,,
2014-12-23 11:00, 1.99,8.0
2014-12-23 12:00, 1.71,8.0
2014-12-23 13:00, 2.11,8.0
2014-12-23 14:00, 2.27,8.0
2014-12-23 15:00, 2.37,8.0
2014-12-23 16:00, 2.57,6.4
2014-12-23 17:00, 2.60,8.0
2014-12-23 18:00, 2.66,8.0
2014-12-23 19:00, 2.23,8.0
2014-12-23 21:00, 2.76,8.0